Regional Weather Roundup
Issued by NWS

Home | Current Version | Previous Version | Text Only | Print | Product List | Glossary Off
Versions: 1 2 3 4 5 6 7 8 9 10 11 12 13 14 15 16 17 18 19 20 21 22 23 24 25 26 27 28 29 30 31 32 33 34 35 36 37 38 39 40 41 42 43 44 45 46 47 48 49 50

000
ASUS43 KFSD 200910
RWRSD

WEATHER ROUNDUP FOR SOUTH DAKOTA
NATIONAL WEATHER SERVICE SIOUX FALLS SD
300 AM CST SAT DEC 20 2014

NOTE: "FAIR" INDICATES FEW OR NO CLOUDS BELOW 12,000 FEET WITH NO
SIGNIFICANT WEATHER AND/OR OBSTRUCTIONS TO VISIBILITY.


SDZ001>005-009-010-012>017-201000-
NORTHWEST AND NORTH CENTRAL SOUTH DAKOTA

CITY           SKY/WX    TMP DP  RH WIND       PRES   REMARKS
BUFFALO          N/A     29  20  69 W3        29.82R
FAITH            N/A     27  21  78 S12       29.90S WCI  17
MOBRIDGE       CLEAR     20  17  88 SE7       29.91F WCI  11
$$

SDZ012>016-024>037-041>051-057-063-072>074-201000-
SOUTHWEST AND SOUTH CENTRAL SOUTH DAKOTA

CITY           SKY/WX    TMP DP  RH WIND       PRES   REMARKS
RAPID CTY ARPT CLEAR     24  17  74 NW9       29.89F WCI  14
PIERRE         FOG       15  11  83 E3        29.96S VSB 1/4
CUSTER         CLEAR     27  15  61 W8        29.89S WCI  19
ELLSWORTH AFB  PTCLDY    25  18  74 W8        29.88S WCI  16
PHILIP         CLEAR     19  16  88 W5        29.93F WCI  12
PINE RIDGE     CLEAR     22  16  78 W5        29.94S WCI  16
SPEARFISH      CLOUDY    30  18  59 CALM      29.90R
WINNER         FAIR      21  15  78 S3        29.97S
$$

SDZ004>011-016>023-039-040-201000-
NORTHEAST SOUTH DAKOTA

CITY           SKY/WX    TMP DP  RH WIND       PRES   REMARKS
ABERDEEN       CLOUDY    28  25  88 S9        30.03R FOG     WCI  19
WATERTOWN      CLOUDY    28  27  96 S15       30.01R FOG     WCI  16
SISSETON         N/A     30  28  92 SW8       30.03S WCI  22
$$

SDZ017-020-022-023-036>040-048>070-201000-
SOUTHEAST SOUTH DAKOTA

CITY           SKY/WX    TMP DP  RH WIND       PRES   REMARKS
SIOUX FALLS    CLOUDY    31  28  89 S10       30.06S WCI  22
HURON          CLOUDY    27  26  96 S6        30.04R FOG     WCI  20
CHAMBERLAIN    MOCLDY    11   9  91 E5        29.99S FOG     WCI   3
MITCHELL       FOG       27  26  96 S12       30.05S VSB 3/4 WCI  17
YANKTON        CLOUDY    34  28  80 S8        30.07R WCI  27
$$

ABBREVIATIONS USED IN REMARKS
   TC - TEMPERATURE IN CELSIUS
  WCI - WIND CHILL INDEX
   HX - HEAT INDEX
  VSB - VISIBILITY



USA.gov is the U.S. government's official web portal to all federal, state and local government web resources and services.